IGO1202 OBBI-VABB

Flight info

Callsign IGO1202
Flight time 3h 11m
Altitude 35000
Route BHR N697 SODAK P559 AMBOV Q322 LOVEM Q572 SERSA P307 TONVO/N0468F370 P307 KUNUS/N0463F390 P307 VAXIM L301 KARKU M638 EXOLU POKON2A
Aircraft A20N/M-SDE2E3FGHIRWXY/LB1

Departure

Time 2026-05-08 10:52
Airport Bahrain International Airport (OBBI)

Arrival

Time 2026-05-08 14:04
Airport Chhatrapati Shivaji Maharaj International Airport (VABB)
Time Latitude Longitude Altitude Speed Heading
2026-05-08 09:45 26.27145 50.62495 12 ft 0 kts 213°
2026-05-08 10:38 26.27147 50.62495 12 ft 1 kts 213°
2026-05-08 10:38 26.27159 50.62505 12 ft 2 kts 212°
2026-05-08 10:38 26.27172 50.62514 12 ft 2 kts 213°
2026-05-08 10:39 26.27185 50.62523 12 ft 2 kts 213°
2026-05-08 10:39 26.27197 50.62532 12 ft 1 kts 213°
2026-05-08 10:39 26.27206 50.62538 12 ft 2 kts 199°
2026-05-08 10:39 26.27221 50.62540 12 ft 2 kts 173°
2026-05-08 10:40 26.27235 50.62534 12 ft 2 kts 146°
2026-05-08 10:40 26.27244 50.62526 12 ft 0 kts 126°
2026-05-08 10:40 26.27248 50.62519 12 ft 1 kts 122°
2026-05-08 10:40 26.27248 50.62518 12 ft 0 kts 122°
2026-05-08 10:44 26.27248 50.62519 12 ft 0 kts 122°
2026-05-08 10:44 26.27243 50.62528 12 ft 2 kts 122°
2026-05-08 10:44 26.27229 50.62552 12 ft 4 kts 122°
2026-05-08 10:44 26.27208 50.62592 12 ft 7 kts 117°
2026-05-08 10:45 26.27225 50.62645 12 ft 8 kts 31°
2026-05-08 10:45 26.27269 50.62691 12 ft 9 kts 84°
2026-05-08 10:45 26.27252 50.62738 12 ft 0 kts 120°
2026-05-08 10:45 26.27250 50.62742 12 ft 1 kts 120°
2026-05-08 10:46 26.27237 50.62765 12 ft 5 kts 123°
2026-05-08 10:46 26.27209 50.62812 12 ft 9 kts 125°
2026-05-08 10:46 26.27166 50.62881 12 ft 12 kts 124°
2026-05-08 10:46 26.27110 50.62966 12 ft 15 kts 128°
2026-05-08 10:47 26.27047 50.63071 12 ft 17 kts 122°
2026-05-08 10:47 26.26979 50.63191 12 ft 19 kts 122°
2026-05-08 10:47 26.26906 50.63324 12 ft 20 kts 121°
2026-05-08 10:47 26.26825 50.63465 12 ft 22 kts 124°
2026-05-08 10:48 26.26736 50.63613 12 ft 23 kts 124°
2026-05-08 10:48 26.26640 50.63775 12 ft 25 kts 123°
2026-05-08 10:48 26.26541 50.63952 12 ft 27 kts 121°
2026-05-08 10:48 26.26434 50.64140 12 ft 29 kts 125°
2026-05-08 10:49 26.26319 50.64330 12 ft 29 kts 123°
2026-05-08 10:49 26.26214 50.64520 12 ft 28 kts 120°
2026-05-08 10:49 26.26105 50.64698 12 ft 26 kts 122°
2026-05-08 10:49 26.26017 50.64849 12 ft 14 kts 122°
2026-05-08 10:50 26.25994 50.64912 12 ft 8 kts 81°
2026-05-08 10:50 26.26033 50.64957 12 ft 8 kts 31°
2026-05-08 10:50 26.26086 50.64993 12 ft 9 kts 31°
2026-05-08 10:50 26.26144 50.64992 12 ft 9 kts 310°
2026-05-08 10:51 26.26175 50.64939 12 ft 8 kts 303°
2026-05-08 10:51 26.26215 50.64871 12 ft 22 kts 303°
2026-05-08 10:51 26.26427 50.64503 12 ft 88 kts 302°
2026-05-08 10:51 26.26867 50.63740 12 ft 143 kts 303°
2026-05-08 10:52 26.27443 50.62726 289 ft 161 kts 307°
2026-05-08 10:52 26.28209 50.61815 779 ft 164 kts 332°
2026-05-08 10:52 26.29268 50.61383 1487 ft 160 kts 346°
2026-05-08 10:52 26.30328 50.61093 2057 ft 160 kts 348°
2026-05-08 10:53 26.31463 50.60802 2320 ft 177 kts 349°
2026-05-08 10:53 26.32725 50.60469 2581 ft 195 kts 347°
2026-05-08 10:53 26.34108 50.60091 2784 ft 216 kts 348°
2026-05-08 10:53 26.35649 50.59768 3110 ft 233 kts 360°
2026-05-08 10:54 26.37234 50.60324 3464 ft 251 kts 37°
2026-05-08 10:54 26.38315 50.61885 4050 ft 261 kts 57°
2026-05-08 10:54 26.39268 50.63602 4650 ft 265 kts 53°
2026-05-08 10:54 26.40324 50.65299 5288 ft 270 kts 53°
2026-05-08 10:55 26.41433 50.67029 5933 ft 275 kts 53°
2026-05-08 10:55 26.42556 50.68766 6564 ft 280 kts 53°
2026-05-08 10:55 26.43707 50.70548 7235 ft 285 kts 53°
2026-05-08 10:55 26.44875 50.72359 7918 ft 289 kts 53°
2026-05-08 10:56 26.46053 50.74180 8578 ft 294 kts 54°
2026-05-08 10:56 26.46456 50.74804 8806 ft 295 kts 54°
2026-05-08 10:57 26.55525 50.88839 11730 ft 378 kts 53°
2026-05-08 10:58 26.57258 50.91146 11994 ft 393 kts 47°
2026-05-08 10:58 26.58573 50.92591 12158 ft 402 kts 42°
2026-05-08 10:58 26.61522 50.95276 12522 ft 418 kts 38°
2026-05-08 10:58 26.63096 50.96625 12847 ft 422 kts 38°
2026-05-08 10:59 26.65421 50.98612 13408 ft 425 kts 38°
2026-05-08 10:59 26.68572 51.01326 14093 ft 430 kts 38°
2026-05-08 10:59 26.70957 51.03394 14581 ft 434 kts 38°
2026-05-08 10:59 26.73291 51.05609 15008 ft 438 kts 48°
2026-05-08 11:00 26.74965 51.08447 15446 ft 440 kts 67°
2026-05-08 11:00 26.75768 51.11733 15901 ft 440 kts 85°
2026-05-08 11:00 26.75641 51.15130 16317 ft 439 kts 103°
2026-05-08 11:00 26.74712 51.18373 16782 ft 439 kts 112°
2026-05-08 11:01 26.74357 51.19436 16941 ft 440 kts 112°
2026-05-08 11:01 26.72925 51.23725 17533 ft 444 kts 112°
2026-05-08 11:01 26.72566 51.24813 17683 ft 445 kts 112°
2026-05-08 11:01 26.70444 51.31324 18534 ft 451 kts 112°
2026-05-08 11:02 26.69367 51.34667 18930 ft 454 kts 112°
2026-05-08 11:02 26.67224 51.41327 19697 ft 460 kts 112°
2026-05-08 11:02 26.66135 51.44709 20068 ft 463 kts 112°
2026-05-08 11:03 26.65039 51.48104 20436 ft 467 kts 112°
2026-05-08 11:03 26.63941 51.51510 20802 ft 469 kts 112°
2026-05-08 11:03 26.62824 51.54980 21144 ft 473 kts 112°
2026-05-08 11:03 26.61707 51.58456 21492 ft 476 kts 112°
2026-05-08 11:04 26.60600 51.61904 21836 ft 478 kts 112°
2026-05-08 11:04 26.59474 51.65403 22156 ft 481 kts 112°
2026-05-08 11:04 26.58331 51.68959 22468 ft 484 kts 112°
2026-05-08 11:04 26.57187 51.72519 22766 ft 486 kts 112°
2026-05-08 11:05 26.56046 51.76056 23047 ft 489 kts 113°
2026-05-08 11:05 26.54893 51.79627 23343 ft 491 kts 113°
2026-05-08 11:05 26.53735 51.83205 23719 ft 490 kts 113°
2026-05-08 11:05 26.52579 51.86771 24097 ft 490 kts 113°
2026-05-08 11:06 26.51411 51.90327 24438 ft 490 kts 114°
2026-05-08 11:06 26.50227 51.93880 24779 ft 490 kts 114°
2026-05-08 11:06 26.49032 51.97459 25135 ft 489 kts 114°
2026-05-08 11:06 26.47850 52.01000 25502 ft 489 kts 114°
2026-05-08 11:07 26.46663 52.04569 25840 ft 489 kts 114°
2026-05-08 11:07 26.45489 52.08098 26171 ft 488 kts 114°
2026-05-08 11:07 26.44302 52.11659 26509 ft 488 kts 114°
2026-05-08 11:07 26.43126 52.15177 26830 ft 488 kts 115°
2026-05-08 11:08 26.41936 52.18726 27154 ft 488 kts 115°
2026-05-08 11:08 26.40742 52.22289 27489 ft 488 kts 115°
2026-05-08 11:08 26.39569 52.25792 27844 ft 487 kts 115°
2026-05-08 11:08 26.38388 52.29319 28188 ft 486 kts 115°
2026-05-08 11:09 26.37196 52.32874 28536 ft 485 kts 115°
2026-05-08 11:09 26.36024 52.36365 28869 ft 485 kts 115°
2026-05-08 11:09 26.34785 52.39826 29211 ft 483 kts 117°
2026-05-08 11:09 26.33466 52.43279 29560 ft 482 kts 118°
2026-05-08 11:10 26.32141 52.46724 29903 ft 482 kts 118°
2026-05-08 11:10 26.30834 52.50121 30230 ft 482 kts 117°
2026-05-08 11:10 26.29511 52.53564 30568 ft 481 kts 117°
2026-05-08 11:10 26.28199 52.56984 30879 ft 482 kts 118°
2026-05-08 11:11 26.26883 52.60418 31219 ft 481 kts 118°
2026-05-08 11:11 26.25582 52.63801 31545 ft 480 kts 117°
2026-05-08 11:11 26.24266 52.67226 31851 ft 480 kts 118°
2026-05-08 11:11 26.22963 52.70636 32139 ft 480 kts 118°
2026-05-08 11:12 26.21644 52.74086 32435 ft 480 kts 118°
2026-05-08 11:12 26.20342 52.77492 32723 ft 479 kts 118°
2026-05-08 11:12 26.19051 52.80866 33005 ft 479 kts 118°
2026-05-08 11:12 26.17732 52.84305 33283 ft 479 kts 118°
2026-05-08 11:13 26.16436 52.87683 33517 ft 480 kts 118°
2026-05-08 11:13 26.15131 52.91081 33717 ft 481 kts 118°
2026-05-08 11:13 26.13818 52.94498 33930 ft 481 kts 118°
2026-05-08 11:13 26.12497 52.97934 34142 ft 482 kts 117°
2026-05-08 11:14 26.11174 53.01376 34358 ft 482 kts 118°
2026-05-08 11:14 26.09874 53.04764 34539 ft 482 kts 117°
2026-05-08 11:14 26.08582 53.08240 34711 ft 483 kts 116°
2026-05-08 11:15 26.06051 53.15153 34774 ft 485 kts 116°
2026-05-08 11:15 26.03519 53.22128 34776 ft 486 kts 114°
2026-05-08 11:16 26.01479 53.29286 34778 ft 488 kts 110°
2026-05-08 11:16 25.99561 53.36499 34778 ft 489 kts 110°
2026-05-08 11:17 25.97597 53.43745 34774 ft 489 kts 111°
2026-05-08 11:17 25.95608 53.50979 34774 ft 489 kts 111°
2026-05-08 11:18 25.93629 53.58140 34773 ft 488 kts 111°
2026-05-08 11:18 25.91632 53.65345 34769 ft 488 kts 111°
2026-05-08 11:19 25.89638 53.72557 34766 ft 488 kts 111°
2026-05-08 11:19 25.87606 53.79765 34764 ft 487 kts 111°
2026-05-08 11:20 25.85593 53.86917 34763 ft 486 kts 111°
2026-05-08 11:20 25.83582 53.94087 34765 ft 486 kts 111°
2026-05-08 11:21 25.81584 54.01206 34764 ft 485 kts 111°
2026-05-08 11:21 25.79574 54.08357 34762 ft 486 kts 111°
2026-05-08 11:22 25.77560 54.15513 34761 ft 486 kts 110°
2026-05-08 11:22 25.75559 54.22612 34756 ft 486 kts 110°
2026-05-08 11:23 25.73531 54.29790 34753 ft 486 kts 111°
2026-05-08 11:23 25.71521 54.36891 34758 ft 485 kts 111°
2026-05-08 11:24 25.69496 54.44023 34764 ft 485 kts 111°
2026-05-08 11:24 25.67473 54.51136 34766 ft 484 kts 110°
2026-05-08 11:25 25.65437 54.58279 34769 ft 485 kts 111°
2026-05-08 11:25 25.63413 54.65369 34769 ft 484 kts 111°
2026-05-08 11:26 25.61381 54.72502 34769 ft 484 kts 111°
2026-05-08 11:26 25.59356 54.79594 34770 ft 483 kts 111°
2026-05-08 11:27 25.57333 54.86644 34771 ft 483 kts 111°
2026-05-08 11:27 25.55297 54.93722 34772 ft 483 kts 111°
2026-05-08 11:28 25.53255 55.00805 34773 ft 482 kts 111°
2026-05-08 11:28 25.51222 55.07837 34769 ft 483 kts 111°
2026-05-08 11:29 25.49171 55.14920 34767 ft 483 kts 111°
2026-05-08 11:29 25.47125 55.21968 34767 ft 482 kts 110°
2026-05-08 11:30 25.45079 55.29007 34771 ft 482 kts 110°
2026-05-08 11:30 25.43019 55.36084 34774 ft 482 kts 110°
2026-05-08 11:31 25.40960 55.43134 34773 ft 483 kts 110°
2026-05-08 11:31 25.38893 55.50204 34775 ft 482 kts 110°
2026-05-08 11:32 25.36830 55.57246 34776 ft 482 kts 110°
2026-05-08 11:32 25.34763 55.64287 34779 ft 482 kts 110°
2026-05-08 11:33 25.32683 55.71381 34781 ft 483 kts 111°
2026-05-08 11:33 25.30615 55.78424 34784 ft 483 kts 111°
2026-05-08 11:34 25.28532 55.85489 34788 ft 483 kts 111°
2026-05-08 11:34 25.26450 55.92525 34796 ft 483 kts 111°
2026-05-08 11:35 25.24367 55.99554 34801 ft 483 kts 111°
2026-05-08 11:35 25.22268 56.06619 34815 ft 482 kts 110°
2026-05-08 11:36 25.20170 56.13672 34823 ft 483 kts 110°
2026-05-08 11:36 25.18083 56.20676 34833 ft 482 kts 110°
2026-05-08 11:37 25.15988 56.27691 34838 ft 482 kts 110°
2026-05-08 11:37 25.13884 56.34724 34813 ft 483 kts 110°
2026-05-08 11:38 25.11767 56.41793 34796 ft 484 kts 110°
2026-05-08 11:38 25.09668 56.48783 34769 ft 484 kts 110°
2026-05-08 11:39 25.07404 56.55765 34755 ft 483 kts 114°
2026-05-08 11:39 25.04881 56.62577 34748 ft 482 kts 115°
2026-05-08 11:40 25.02333 56.69437 34741 ft 482 kts 115°
2026-05-08 11:40 24.99809 56.76259 34733 ft 482 kts 115°
2026-05-08 11:41 24.97283 56.83066 34731 ft 482 kts 115°
2026-05-08 11:41 24.94750 56.89876 34732 ft 482 kts 115°
2026-05-08 11:42 24.92197 56.96723 34723 ft 483 kts 115°
2026-05-08 11:42 24.89649 57.03544 34720 ft 483 kts 115°
2026-05-08 11:43 24.87072 57.10356 34716 ft 483 kts 115°
2026-05-08 11:43 24.84496 57.17181 34709 ft 483 kts 115°
2026-05-08 11:44 24.81942 57.23972 34702 ft 483 kts 115°
2026-05-08 11:44 24.79387 57.30772 34701 ft 483 kts 114°
2026-05-08 11:45 24.76812 57.37617 34700 ft 483 kts 114°
2026-05-08 11:45 24.74250 57.44421 34701 ft 483 kts 114°
2026-05-08 11:46 24.71688 57.51211 34700 ft 483 kts 114°
2026-05-08 11:46 24.69108 57.58046 34696 ft 483 kts 114°
2026-05-08 11:47 24.66554 57.64809 34693 ft 483 kts 114°
2026-05-08 11:47 24.63973 57.71648 34693 ft 483 kts 115°
2026-05-08 11:48 24.61386 57.78445 34689 ft 482 kts 115°
2026-05-08 11:48 24.58800 57.85210 34692 ft 483 kts 115°
2026-05-08 11:49 24.56205 57.92009 34689 ft 483 kts 114°
2026-05-08 11:49 24.53620 57.98776 34689 ft 483 kts 114°
2026-05-08 11:50 24.51022 58.05569 34693 ft 484 kts 114°
2026-05-08 11:50 24.48422 58.12359 34697 ft 484 kts 115°
2026-05-08 11:51 24.45805 58.19181 34708 ft 483 kts 114°
2026-05-08 11:51 24.43214 58.25924 34710 ft 482 kts 114°
2026-05-08 11:52 24.40602 58.32716 34707 ft 482 kts 115°
2026-05-08 11:52 24.37990 58.39497 34702 ft 483 kts 114°
2026-05-08 11:53 24.35390 58.46247 34699 ft 483 kts 114°
2026-05-08 11:53 24.32773 58.53019 34697 ft 483 kts 114°
2026-05-08 11:54 24.30156 58.59755 34698 ft 483 kts 115°
2026-05-08 11:54 24.27514 58.66548 34696 ft 483 kts 115°
2026-05-08 11:55 24.24896 58.73311 34696 ft 483 kts 115°
2026-05-08 11:55 24.22291 58.80021 34697 ft 483 kts 115°
2026-05-08 11:56 24.19648 58.86805 34696 ft 482 kts 115°
2026-05-08 11:56 24.17019 58.93541 34696 ft 482 kts 115°
2026-05-08 11:57 24.14400 59.00243 34699 ft 481 kts 115°
2026-05-08 11:57 24.11772 59.06957 34700 ft 481 kts 115°
2026-05-08 11:58 24.09135 59.13688 34699 ft 481 kts 115°
2026-05-08 11:58 24.06495 59.20417 34700 ft 481 kts 115°
2026-05-08 11:59 24.02535 59.30489 34698 ft 482 kts 115°
2026-05-08 11:59 23.99947 59.37203 34701 ft 482 kts 114°
2026-05-08 12:00 23.97446 59.43993 34697 ft 481 kts 113°
2026-05-08 12:00 23.94943 59.50779 34695 ft 481 kts 113°
2026-05-08 12:01 23.92444 59.57520 34698 ft 481 kts 113°
2026-05-08 12:01 23.89941 59.64256 34704 ft 480 kts 113°
2026-05-08 12:02 23.87399 59.71047 34702 ft 481 kts 114°
2026-05-08 12:02 23.84888 59.77767 34702 ft 481 kts 114°
2026-05-08 12:03 23.82778 59.83401 34705 ft 481 kts 114°
2026-05-08 12:03 23.79826 59.91260 34708 ft 481 kts 114°
2026-05-08 12:04 23.77285 59.98035 34708 ft 481 kts 114°
2026-05-08 12:04 23.74746 60.04800 34709 ft 481 kts 114°
2026-05-08 12:05 23.72216 60.11538 34713 ft 481 kts 114°
2026-05-08 12:05 23.69684 60.18269 34716 ft 481 kts 114°
2026-05-08 12:06 23.67159 60.24975 34717 ft 481 kts 114°
2026-05-08 12:06 23.64613 60.31722 34718 ft 481 kts 114°
2026-05-08 12:07 23.62068 60.38455 34718 ft 480 kts 114°
2026-05-08 12:07 23.59544 60.45126 34714 ft 480 kts 113°
2026-05-08 12:08 23.56995 60.51857 34715 ft 480 kts 114°
2026-05-08 12:08 23.54441 60.58588 34714 ft 480 kts 113°
2026-05-08 12:09 23.51893 60.65293 34716 ft 481 kts 114°
2026-05-08 12:09 23.49357 60.71984 34719 ft 481 kts 114°
2026-05-08 12:10 23.46801 60.78709 34724 ft 481 kts 114°
2026-05-08 12:10 23.44242 60.85422 34730 ft 480 kts 114°
2026-05-08 12:11 23.41678 60.92135 34733 ft 480 kts 114°
2026-05-08 12:11 23.39121 60.98821 34728 ft 479 kts 114°
2026-05-08 12:12 23.36567 61.05489 34720 ft 479 kts 114°
2026-05-08 12:12 23.34053 61.12223 34716 ft 481 kts 111°
2026-05-08 12:13 23.32107 61.19171 34714 ft 482 kts 104°
2026-05-08 12:13 23.30900 61.26306 34718 ft 483 kts 97°
2026-05-08 12:14 23.30239 61.33546 34718 ft 483 kts 95°
2026-05-08 12:14 23.29616 61.40779 34721 ft 482 kts 95°
2026-05-08 12:15 23.28977 61.48051 34724 ft 482 kts 96°
2026-05-08 12:15 23.28331 61.55295 34724 ft 482 kts 96°
2026-05-08 12:16 23.27679 61.62513 34726 ft 482 kts 96°
2026-05-08 12:16 23.27026 61.69716 34732 ft 482 kts 96°
2026-05-08 12:17 23.26368 61.76973 34733 ft 482 kts 96°
2026-05-08 12:17 23.25709 61.84189 34734 ft 481 kts 96°
2026-05-08 12:18 23.25375 61.87829 34735 ft 481 kts 96°
2026-05-08 12:18 23.24379 61.98622 34734 ft 481 kts 96°
2026-05-08 12:19 23.23708 62.05833 34737 ft 481 kts 96°
2026-05-08 12:19 23.23031 62.13068 34739 ft 481 kts 96°
2026-05-08 12:20 23.22352 62.20297 34741 ft 481 kts 96°
2026-05-08 12:20 23.21675 62.27467 34743 ft 481 kts 96°
2026-05-08 12:21 23.20988 62.34710 34745 ft 480 kts 96°
2026-05-08 12:21 23.20302 62.41914 34747 ft 480 kts 96°
2026-05-08 12:22 23.19614 62.49110 34749 ft 481 kts 96°
2026-05-08 12:22 23.18923 62.56288 34744 ft 481 kts 96°
2026-05-08 12:23 23.18222 62.63520 34737 ft 481 kts 95°
2026-05-08 12:23 23.17526 62.70706 34738 ft 481 kts 96°
2026-05-08 12:24 23.16823 62.77938 34741 ft 480 kts 96°
2026-05-08 12:24 23.16119 62.85126 34738 ft 480 kts 96°
2026-05-08 12:25 23.15410 62.92323 34736 ft 480 kts 96°
2026-05-08 12:25 23.14700 62.99497 34730 ft 480 kts 96°
2026-05-08 12:26 23.13983 63.06701 34740 ft 480 kts 96°
2026-05-08 12:26 23.13264 63.13892 34741 ft 481 kts 96°
2026-05-08 12:27 23.12541 63.21101 34741 ft 481 kts 96°
2026-05-08 12:27 23.11814 63.28306 34749 ft 480 kts 96°
2026-05-08 12:28 23.11088 63.35468 34748 ft 480 kts 96°
2026-05-08 12:28 23.10479 63.41454 34749 ft 480 kts 96°
2026-05-08 12:29 23.09622 63.49839 34753 ft 480 kts 96°
2026-05-08 12:29 23.08880 63.57072 34753 ft 481 kts 96°
2026-05-08 12:30 23.08142 63.64233 34757 ft 481 kts 96°
2026-05-08 12:30 23.07398 63.71452 34758 ft 480 kts 96°
2026-05-08 12:31 23.06645 63.78639 34761 ft 480 kts 97°
2026-05-08 12:31 23.05457 63.85722 34764 ft 481 kts 103°
2026-05-08 12:32 23.03519 63.92679 34766 ft 481 kts 110°
2026-05-08 12:32 23.01032 63.99400 34764 ft 482 kts 112°
2026-05-08 12:33 22.98490 64.06095 34766 ft 481 kts 112°
2026-05-08 12:33 22.95958 64.12781 34767 ft 481 kts 112°
2026-05-08 12:34 22.93417 64.19495 34772 ft 481 kts 112°
2026-05-08 12:34 22.90878 64.26198 34781 ft 482 kts 112°
2026-05-08 12:35 22.88324 64.32894 34782 ft 482 kts 112°
2026-05-08 12:35 22.85753 64.39590 34784 ft 481 kts 112°
2026-05-08 12:36 22.83190 64.46298 34786 ft 482 kts 111°
2026-05-08 12:36 22.80637 64.52994 34784 ft 482 kts 111°
2026-05-08 12:37 22.78073 64.59713 34785 ft 482 kts 111°
2026-05-08 12:37 22.75526 64.66384 34783 ft 482 kts 112°
2026-05-08 12:38 22.72981 64.73067 34786 ft 482 kts 112°
2026-05-08 12:38 22.70415 64.79782 34792 ft 482 kts 112°
2026-05-08 12:39 22.67861 64.86448 34797 ft 481 kts 112°
2026-05-08 12:39 22.65299 64.93122 34800 ft 481 kts 112°
2026-05-08 12:40 22.62740 64.99775 34796 ft 481 kts 112°
2026-05-08 12:40 22.60148 65.06502 34793 ft 482 kts 112°
2026-05-08 12:41 22.57577 65.13163 34793 ft 482 kts 112°
2026-05-08 12:41 22.54992 65.19851 34793 ft 482 kts 111°
2026-05-08 12:42 22.52404 65.26543 35028 ft 484 kts 111°
2026-05-08 12:42 22.51104 65.29900 35314 ft 482 kts 112°
2026-05-08 12:42 22.49828 65.33193 35562 ft 481 kts 112°
2026-05-08 12:43 22.48526 65.36550 35764 ft 481 kts 112°
2026-05-08 12:43 22.47244 65.39853 35935 ft 481 kts 112°
2026-05-08 12:43 22.45950 65.43186 36117 ft 481 kts 112°
2026-05-08 12:43 22.44651 65.46526 36298 ft 481 kts 112°
2026-05-08 12:44 22.43352 65.49867 36475 ft 481 kts 112°
2026-05-08 12:44 22.42052 65.53205 36642 ft 481 kts 112°
2026-05-08 12:44 22.40763 65.56510 36787 ft 481 kts 112°
2026-05-08 12:44 22.39463 65.59845 36791 ft 482 kts 112°
2026-05-08 12:45 22.36860 65.66519 36802 ft 482 kts 112°
2026-05-08 12:45 22.34278 65.73157 36802 ft 482 kts 112°
2026-05-08 12:46 22.31673 65.79829 36805 ft 482 kts 112°
2026-05-08 12:46 22.29076 65.86459 36803 ft 482 kts 112°
2026-05-08 12:47 22.26465 65.93113 36803 ft 482 kts 112°
2026-05-08 12:47 22.23847 65.99773 36806 ft 482 kts 112°
2026-05-08 12:48 22.21241 66.06398 36804 ft 482 kts 112°
2026-05-08 12:48 22.18617 66.13059 36804 ft 482 kts 112°
2026-05-08 12:49 22.16004 66.19681 36810 ft 482 kts 112°
2026-05-08 12:49 22.13394 66.26287 36815 ft 482 kts 112°
2026-05-08 12:50 22.10771 66.32919 36819 ft 482 kts 112°
2026-05-08 12:50 22.08136 66.39575 36821 ft 481 kts 112°
2026-05-08 12:51 22.04199 66.49494 36824 ft 481 kts 112°
2026-05-08 12:52 22.01563 66.56102 36825 ft 481 kts 112°
2026-05-08 12:52 21.97606 66.66022 36825 ft 481 kts 112°
2026-05-08 12:53 21.94973 66.72647 36826 ft 481 kts 112°
2026-05-08 12:53 21.92339 66.79259 36826 ft 481 kts 112°
2026-05-08 12:54 21.89710 66.85834 36826 ft 481 kts 112°
2026-05-08 12:54 21.87042 66.92423 36818 ft 473 kts 113°
2026-05-08 12:55 21.85745 66.95624 36823 ft 456 kts 113°
2026-05-08 12:55 21.84495 66.98720 36822 ft 440 kts 112°
2026-05-08 12:55 21.83304 67.01678 36819 ft 425 kts 112°
2026-05-08 12:55 21.82159 67.04524 36817 ft 410 kts 112°
2026-05-08 12:56 21.81047 67.07290 36813 ft 395 kts 112°
2026-05-08 12:56 21.79977 67.09952 36813 ft 380 kts 112°
2026-05-08 12:56 21.78943 67.12523 36811 ft 365 kts 112°
2026-05-08 12:56 21.77953 67.14983 36809 ft 349 kts 112°
2026-05-08 12:57 21.77012 67.17325 36532 ft 344 kts 112°
2026-05-08 12:57 21.76053 67.19722 35552 ft 358 kts 112°
2026-05-08 12:57 21.75056 67.22227 34589 ft 370 kts 111°
2026-05-08 12:57 21.74041 67.24793 33744 ft 378 kts 111°
2026-05-08 12:58 21.73009 67.27417 32979 ft 384 kts 111°
2026-05-08 12:58 21.71967 67.30081 32303 ft 388 kts 111°
2026-05-08 12:58 21.70933 67.32736 31709 ft 391 kts 110°
2026-05-08 12:58 21.69886 67.35437 31140 ft 392 kts 110°
2026-05-08 12:59 21.68850 67.38121 30854 ft 384 kts 110°
2026-05-08 12:59 21.67853 67.40705 31307 ft 371 kts 110°
2026-05-08 12:59 21.66793 67.43290 31384 ft 385 kts 112°
2026-05-08 12:59 21.65643 67.45922 31537 ft 394 kts 112°
2026-05-08 13:00 21.64490 67.48589 31703 ft 401 kts 112°
2026-05-08 13:00 21.63319 67.51356 31870 ft 408 kts 112°
2026-05-08 13:00 21.62152 67.54160 32033 ft 415 kts 112°
2026-05-08 13:00 21.60971 67.57027 32194 ft 422 kts 111°
2026-05-08 13:01 21.59776 67.59943 32348 ft 429 kts 111°
2026-05-08 13:01 21.58567 67.62901 32500 ft 435 kts 111°
2026-05-08 13:01 21.57352 67.65881 32643 ft 441 kts 112°
2026-05-08 13:01 21.56113 67.68928 32795 ft 448 kts 112°
2026-05-08 13:02 21.54867 67.71997 32962 ft 455 kts 112°
2026-05-08 13:02 21.53586 67.75149 33122 ft 461 kts 112°
2026-05-08 13:02 21.52303 67.78296 33272 ft 467 kts 112°
2026-05-08 13:02 21.50984 67.81528 33416 ft 473 kts 112°
2026-05-08 13:03 21.49657 67.84776 33552 ft 478 kts 112°
2026-05-08 13:03 21.48324 67.88037 33685 ft 483 kts 112°
2026-05-08 13:03 21.46968 67.91352 33914 ft 485 kts 112°
2026-05-08 13:03 21.45612 67.94665 34245 ft 484 kts 112°
2026-05-08 13:04 21.44279 67.97920 34604 ft 483 kts 112°
2026-05-08 13:04 21.42926 68.01224 34957 ft 481 kts 112°
2026-05-08 13:04 21.41574 68.04520 35280 ft 480 kts 113°
2026-05-08 13:04 21.40234 68.07788 35565 ft 480 kts 113°
2026-05-08 13:05 21.38895 68.11049 35828 ft 480 kts 113°
2026-05-08 13:05 21.37554 68.14312 36086 ft 479 kts 113°
2026-05-08 13:05 21.36225 68.17543 36332 ft 479 kts 113°
2026-05-08 13:05 21.34867 68.20844 36570 ft 479 kts 113°
2026-05-08 13:06 21.33537 68.24072 36772 ft 480 kts 113°
2026-05-08 13:06 21.32171 68.27389 36811 ft 483 kts 113°
2026-05-08 13:06 21.29451 68.33985 36823 ft 491 kts 113°
2026-05-08 13:07 21.26663 68.40736 36860 ft 493 kts 113°
2026-05-08 13:07 21.23942 68.47315 36779 ft 478 kts 113°
2026-05-08 13:08 21.21248 68.53823 36824 ft 479 kts 113°
2026-05-08 13:08 21.18549 68.60339 36826 ft 480 kts 113°
2026-05-08 13:09 21.15832 68.66888 36826 ft 480 kts 114°
2026-05-08 13:09 21.13134 68.73412 36826 ft 480 kts 114°
2026-05-08 13:10 21.10439 68.79906 36826 ft 479 kts 114°
2026-05-08 13:10 21.07723 68.86430 36827 ft 479 kts 114°
2026-05-08 13:11 21.05022 68.92908 36827 ft 478 kts 114°
2026-05-08 13:11 21.02302 68.99423 36827 ft 478 kts 114°
2026-05-08 13:12 20.99590 69.05913 36833 ft 479 kts 114°
2026-05-08 13:12 20.97031 69.12463 36839 ft 480 kts 109°
2026-05-08 13:13 20.94940 69.19243 36842 ft 480 kts 107°
2026-05-08 13:13 20.92907 69.26017 36842 ft 480 kts 107°
2026-05-08 13:14 20.90865 69.32803 36840 ft 480 kts 107°
2026-05-08 13:14 20.88801 69.39592 36833 ft 480 kts 108°
2026-05-08 13:15 20.86722 69.46358 36833 ft 479 kts 107°
2026-05-08 13:15 20.84672 69.53072 36830 ft 480 kts 107°
2026-05-08 13:16 20.82603 69.59869 36831 ft 480 kts 107°
2026-05-08 13:16 20.80543 69.66634 36832 ft 481 kts 107°
2026-05-08 13:17 20.78470 69.73465 36830 ft 481 kts 108°
2026-05-08 13:17 20.76410 69.80230 36828 ft 481 kts 107°
2026-05-08 13:18 20.74330 69.87034 36827 ft 481 kts 107°
2026-05-08 13:18 20.72264 69.93783 36828 ft 481 kts 107°
2026-05-08 13:19 20.70173 70.00603 36826 ft 481 kts 107°
2026-05-08 13:19 20.68093 70.07377 36827 ft 482 kts 108°
2026-05-08 13:20 20.66012 70.14137 36825 ft 482 kts 108°
2026-05-08 13:20 20.63916 70.20940 36824 ft 483 kts 108°
2026-05-08 13:21 20.61820 70.27731 36823 ft 483 kts 108°
2026-05-08 13:21 20.59723 70.34512 36823 ft 483 kts 107°
2026-05-08 13:22 20.57615 70.41322 36823 ft 482 kts 108°
2026-05-08 13:22 20.55518 70.48090 36822 ft 482 kts 108°
2026-05-08 13:23 20.53414 70.54861 36821 ft 483 kts 107°
2026-05-08 13:23 20.51315 70.61613 36821 ft 482 kts 108°
2026-05-08 13:24 20.49196 70.68428 36820 ft 483 kts 108°
2026-05-08 13:24 20.47118 70.75182 36820 ft 483 kts 108°
2026-05-08 13:25 20.45014 70.81947 36816 ft 483 kts 108°
2026-05-08 13:25 20.42866 70.88744 36811 ft 483 kts 108°
2026-05-08 13:26 20.40738 70.95507 36809 ft 483 kts 108°
2026-05-08 13:26 20.38600 71.02316 36807 ft 484 kts 108°
2026-05-08 13:27 20.36461 71.09127 36805 ft 483 kts 108°
2026-05-08 13:27 20.34338 71.15874 36803 ft 483 kts 108°
2026-05-08 13:28 20.32193 71.22687 36804 ft 483 kts 108°
2026-05-08 13:28 20.30064 71.29438 36801 ft 483 kts 108°
2026-05-08 13:29 20.27984 71.36021 36451 ft 476 kts 108°
2026-05-08 13:29 20.26921 71.39384 35848 ft 472 kts 108°
2026-05-08 13:29 20.25879 71.42677 35239 ft 469 kts 107°
2026-05-08 13:30 20.24849 71.45928 34685 ft 464 kts 107°
2026-05-08 13:30 20.23781 71.49127 34135 ft 461 kts 110°
2026-05-08 13:30 20.22512 71.52271 33559 ft 458 kts 114°
2026-05-08 13:30 20.21081 71.55234 33014 ft 456 kts 117°
2026-05-08 13:31 20.19450 71.58112 32481 ft 453 kts 121°
2026-05-08 13:31 20.17650 71.60847 31965 ft 450 kts 125°
2026-05-08 13:31 20.15682 71.63449 31403 ft 449 kts 129°
2026-05-08 13:31 20.13605 71.65890 30860 ft 447 kts 131°
2026-05-08 13:32 20.11491 71.68324 30330 ft 445 kts 131°
2026-05-08 13:32 20.09408 71.70719 29820 ft 442 kts 131°
2026-05-08 13:32 20.07324 71.73116 29312 ft 439 kts 130°
2026-05-08 13:32 20.05255 71.75493 28810 ft 436 kts 130°
2026-05-08 13:33 20.03195 71.77863 28298 ft 434 kts 130°
2026-05-08 13:33 20.01174 71.80190 27803 ft 432 kts 130°
2026-05-08 13:33 19.99117 71.82557 27328 ft 429 kts 130°
2026-05-08 13:33 19.97110 71.84866 26897 ft 425 kts 130°
2026-05-08 13:34 19.95115 71.87156 26689 ft 415 kts 130°
2026-05-08 13:34 19.93186 71.89372 26390 ft 408 kts 130°
2026-05-08 13:34 19.91255 71.91590 25978 ft 405 kts 130°
2026-05-08 13:34 19.89356 71.93770 25530 ft 403 kts 131°
2026-05-08 13:35 19.87462 71.95930 25095 ft 401 kts 131°
2026-05-08 13:35 19.85551 71.98109 24686 ft 397 kts 131°
2026-05-08 13:35 19.83693 72.00234 24274 ft 394 kts 131°
2026-05-08 13:35 19.81835 72.02361 23862 ft 391 kts 131°
2026-05-08 13:36 19.79974 72.04491 23447 ft 389 kts 131°
2026-05-08 13:36 19.78128 72.06543 23026 ft 387 kts 134°
2026-05-08 13:36 19.76127 72.08499 22608 ft 385 kts 138°
2026-05-08 13:36 19.74057 72.10273 22207 ft 383 kts 141°
2026-05-08 13:37 19.71946 72.11998 21829 ft 381 kts 141°
2026-05-08 13:37 19.69875 72.13682 21486 ft 377 kts 141°
2026-05-08 13:37 19.67800 72.15370 21141 ft 373 kts 141°
2026-05-08 13:37 19.65746 72.17046 20805 ft 369 kts 141°
2026-05-08 13:38 19.63722 72.18700 20468 ft 366 kts 141°
2026-05-08 13:38 19.61698 72.20355 20123 ft 362 kts 141°
2026-05-08 13:38 19.59718 72.21973 19783 ft 358 kts 140°
2026-05-08 13:38 19.57770 72.23566 19436 ft 355 kts 140°
2026-05-08 13:39 19.55813 72.25165 19073 ft 352 kts 140°
2026-05-08 13:39 19.53875 72.26749 18722 ft 349 kts 140°
2026-05-08 13:39 19.51963 72.28311 18444 ft 342 kts 140°
2026-05-08 13:39 19.50109 72.29826 18280 ft 332 kts 140°
2026-05-08 13:40 19.48298 72.31306 18123 ft 323 kts 140°
2026-05-08 13:40 19.46541 72.32740 17936 ft 315 kts 140°
2026-05-08 13:40 19.44806 72.34158 17647 ft 311 kts 140°
2026-05-08 13:40 19.43101 72.35551 17334 ft 308 kts 140°
2026-05-08 13:41 19.41420 72.36924 17020 ft 305 kts 140°
2026-05-08 13:41 19.39743 72.38294 16690 ft 302 kts 140°
2026-05-08 13:41 19.38076 72.39655 16365 ft 300 kts 140°
2026-05-08 13:41 19.36415 72.41012 16040 ft 297 kts 140°
2026-05-08 13:42 19.34799 72.42330 15713 ft 295 kts 140°
2026-05-08 13:42 19.33175 72.43654 15390 ft 293 kts 140°
2026-05-08 13:42 19.31569 72.44961 15057 ft 290 kts 140°
2026-05-08 13:42 19.29963 72.46269 14720 ft 289 kts 140°
2026-05-08 13:43 19.28919 72.47136 14507 ft 287 kts 139°
2026-05-08 13:43 19.26946 72.49027 14076 ft 283 kts 133°
2026-05-08 13:43 19.25583 72.50509 13749 ft 280 kts 132°
2026-05-08 13:43 19.24232 72.51990 13406 ft 278 kts 132°
2026-05-08 13:44 19.22898 72.53455 13087 ft 276 kts 132°
2026-05-08 13:44 19.21562 72.54921 12756 ft 274 kts 132°
2026-05-08 13:44 19.20240 72.56369 12405 ft 272 kts 132°
2026-05-08 13:44 19.18923 72.57812 12054 ft 270 kts 132°
2026-05-08 13:45 19.17631 72.59226 11713 ft 269 kts 132°
2026-05-08 13:45 19.16316 72.60667 11365 ft 268 kts 132°
2026-05-08 13:45 19.15033 72.62072 11023 ft 266 kts 132°
2026-05-08 13:45 19.13742 72.63485 10793 ft 263 kts 132°
2026-05-08 13:46 19.12466 72.64880 10772 ft 264 kts 131°
2026-05-08 13:46 19.11195 72.66277 10768 ft 265 kts 131°
2026-05-08 13:46 19.09917 72.67690 10766 ft 265 kts 131°
2026-05-08 13:46 19.08629 72.69109 10763 ft 265 kts 131°
2026-05-08 13:47 19.07354 72.70509 10759 ft 265 kts 131°
2026-05-08 13:47 19.06072 72.71915 10761 ft 265 kts 132°
2026-05-08 13:47 19.04780 72.73328 10767 ft 265 kts 132°
2026-05-08 13:47 19.03499 72.74728 10767 ft 265 kts 132°
2026-05-08 13:48 19.02222 72.76122 10766 ft 265 kts 131°
2026-05-08 13:48 19.00931 72.77532 10768 ft 265 kts 131°
2026-05-08 13:48 18.99640 72.78942 10769 ft 265 kts 132°
2026-05-08 13:48 18.98371 72.80327 10763 ft 256 kts 131°
2026-05-08 13:49 18.97161 72.81644 10766 ft 248 kts 131°
2026-05-08 13:49 18.95945 72.82971 10769 ft 252 kts 131°
2026-05-08 13:49 18.94722 72.84307 10770 ft 253 kts 131°
2026-05-08 13:49 18.93492 72.85648 10768 ft 253 kts 131°
2026-05-08 13:50 18.92259 72.86994 10768 ft 253 kts 131°
2026-05-08 13:50 18.91039 72.88322 10760 ft 246 kts 131°
2026-05-08 13:50 18.89850 72.89616 10760 ft 241 kts 131°
2026-05-08 13:50 18.88665 72.90896 10761 ft 241 kts 131°
2026-05-08 13:51 18.87491 72.92162 10756 ft 241 kts 131°
2026-05-08 13:51 18.86310 72.93438 10712 ft 239 kts 131°
2026-05-08 13:51 18.85154 72.94691 10412 ft 238 kts 131°
2026-05-08 13:51 18.84008 72.95934 10069 ft 239 kts 130°
2026-05-08 13:52 18.82849 72.97193 9749 ft 238 kts 130°
2026-05-08 13:52 18.81700 72.98442 9449 ft 236 kts 130°
2026-05-08 13:52 18.80557 72.99685 9143 ft 235 kts 130°
2026-05-08 13:52 18.79412 73.00931 8827 ft 234 kts 130°
2026-05-08 13:53 18.78277 73.02168 8492 ft 234 kts 130°
2026-05-08 13:53 18.77143 73.03403 8178 ft 235 kts 130°
2026-05-08 13:53 18.75999 73.04646 7850 ft 236 kts 130°
2026-05-08 13:53 18.74945 73.05965 7512 ft 232 kts 112°
2026-05-08 13:54 18.74680 73.07594 7179 ft 224 kts 78°
2026-05-08 13:54 18.75279 73.09080 6849 ft 220 kts 50°
2026-05-08 13:54 18.76293 73.10282 6503 ft 222 kts 49°
2026-05-08 13:54 18.77310 73.11546 6168 ft 223 kts 50°
2026-05-08 13:55 18.78293 73.12801 5876 ft 222 kts 50°
2026-05-08 13:55 18.79322 73.14028 5564 ft 220 kts 37°
2026-05-08 13:55 18.82204 73.14144 4968 ft 221 kts 331°
2026-05-08 13:56 18.83385 73.13097 4692 ft 222 kts 318°
2026-05-08 13:56 18.84469 73.11966 4412 ft 220 kts 319°
2026-05-08 13:56 18.85575 73.10838 4137 ft 218 kts 319°
2026-05-08 13:56 18.86672 73.09735 3858 ft 216 kts 320°
2026-05-08 13:57 18.87769 73.08642 3591 ft 214 kts 320°
2026-05-08 13:57 18.88844 73.07574 3332 ft 212 kts 320°
2026-05-08 13:57 18.89924 73.06506 3078 ft 209 kts 320°
2026-05-08 13:57 18.90979 73.05464 2816 ft 207 kts 320°
2026-05-08 13:58 18.92038 73.04420 2523 ft 207 kts 320°
2026-05-08 13:58 18.93094 73.03380 2234 ft 206 kts 319°
2026-05-08 13:58 18.94136 73.02351 2083 ft 198 kts 319°
2026-05-08 13:58 18.95106 73.01391 2044 ft 184 kts 319°
2026-05-08 13:59 18.95985 73.00517 2070 ft 163 kts 319°
2026-05-08 13:59 18.96786 72.99723 2029 ft 154 kts 320°
2026-05-08 13:59 18.97567 72.98953 2026 ft 153 kts 320°
2026-05-08 13:59 18.98355 72.98175 2023 ft 153 kts 320°
2026-05-08 14:00 18.99116 72.97388 2023 ft 153 kts 318°
2026-05-08 14:00 18.99607 72.96857 1958 ft 150 kts 317°
2026-05-08 14:00 19.00572 72.95811 1726 ft 143 kts 318°
2026-05-08 14:00 19.01256 72.95068 1727 ft 141 kts 318°
2026-05-08 14:01 19.01944 72.94323 1723 ft 141 kts 318°
2026-05-08 14:01 19.02636 72.93574 1637 ft 141 kts 318°
2026-05-08 14:01 19.03326 72.92828 1521 ft 141 kts 318°
2026-05-08 14:01 19.04001 72.92097 1331 ft 133 kts 317°
2026-05-08 14:02 19.04632 72.91413 1140 ft 129 kts 316°
2026-05-08 14:02 19.05262 72.90732 962 ft 128 kts 316°
2026-05-08 14:02 19.05886 72.90056 780 ft 128 kts 315°
2026-05-08 14:02 19.06507 72.89383 598 ft 128 kts 315°
2026-05-08 14:03 19.07129 72.88704 363 ft 127 kts 314°
2026-05-08 14:03 19.07730 72.88029 176 ft 126 kts 314°
2026-05-08 14:03 19.08344 72.87359 34 ft 124 kts 313°
2026-05-08 14:03 19.08881 72.86773 31 ft 89 kts 314°
2026-05-08 14:04 19.09196 72.86431 33 ft 39 kts 314°
2026-05-08 14:04 19.09322 72.86275 37 ft 18 kts 298°
2026-05-08 14:04 19.09392 72.86207 39 ft 12 kts 321°
2026-05-08 14:04 19.09470 72.86139 41 ft 16 kts 321°
2026-05-08 14:05 19.09580 72.86063 45 ft 21 kts 333°
2026-05-08 14:05 19.09708 72.86014 47 ft 15 kts 353°
2026-05-08 14:05 19.09761 72.86061 48 ft 10 kts 103°
2026-05-08 14:05 19.09753 72.86078 48 ft 0 kts 127°
2026-05-08 14:06 19.09752 72.86079 48 ft 1 kts 127°
2026-05-08 14:06 19.09742 72.86092 48 ft 3 kts 129°
2026-05-08 14:07 19.09718 72.86117 47 ft 5 kts 148°
2026-05-08 14:07 19.09672 72.86111 46 ft 8 kts 214°
2026-05-08 14:07 19.09617 72.86076 46 ft 9 kts 207°
2026-05-08 14:07 19.09549 72.86037 44 ft 12 kts 211°
2026-05-08 14:08 19.09466 72.85986 42 ft 15 kts 210°
2026-05-08 14:08 19.09381 72.85935 39 ft 14 kts 209°
2026-05-08 14:08 19.09361 72.85924 38 ft 0 kts 210°
2026-05-08 14:09 19.09359 72.85923 38 ft 1 kts 210°
2026-05-08 14:09 19.09338 72.85910 37 ft 5 kts 210°
2026-05-08 14:09 19.09297 72.85884 36 ft 8 kts 212°
2026-05-08 14:09 19.09242 72.85850 35 ft 10 kts 209°
2026-05-08 14:10 19.09184 72.85816 34 ft 8 kts 208°
2026-05-08 14:10 19.09132 72.85785 32 ft 5 kts 210°
2026-05-08 14:10 19.09084 72.85756 31 ft 9 kts 211°
2026-05-08 14:10 19.09043 72.85746 29 ft 6 kts 151°
2026-05-08 14:11 19.09028 72.85803 29 ft 9 kts 90°
2026-05-08 14:11 19.09029 72.85876 29 ft 9 kts 89°
2026-05-08 14:11 19.09031 72.85947 31 ft 9 kts 89°
2026-05-08 14:11 19.09032 72.86018 31 ft 10 kts 89°
2026-05-08 14:12 19.09033 72.86098 31 ft 11 kts 89°
2026-05-08 14:12 19.09034 72.86172 31 ft 7 kts 89°
2026-05-08 14:12 19.09035 72.86231 31 ft 8 kts 89°
2026-05-08 14:12 19.09035 72.86272 31 ft 0 kts 89°
2026-05-08 14:13 19.09036 72.86279 31 ft 2 kts 88°
2026-05-08 14:13 19.09037 72.86301 31 ft 3 kts 79°
2026-05-08 14:13 19.09051 72.86327 32 ft 4 kts 50°
2026-05-08 14:14 19.09073 72.86354 32 ft 4 kts 49°
2026-05-08 14:14 19.09097 72.86382 32 ft 5 kts 49°
2026-05-08 14:14 19.09127 72.86417 32 ft 9 kts 47°
2026-05-08 14:14 19.09185 72.86488 31 ft 14 kts 49°
2026-05-08 14:15 19.09246 72.86560 33 ft 9 kts 47°
2026-05-08 14:15 19.09293 72.86615 34 ft 10 kts 49°
2026-05-08 14:15 19.09342 72.86674 34 ft 10 kts 48°
2026-05-08 14:15 19.09383 72.86723 35 ft 7 kts 49°
2026-05-08 14:16 19.09419 72.86766 36 ft 7 kts 53°
2026-05-08 14:16 19.09423 72.86825 35 ft 8 kts 115°
2026-05-08 14:16 19.09418 72.86838 35 ft 0 kts 108°
2026-05-08 14:17 19.09416 72.86845 35 ft 2 kts 104°
2026-05-08 14:17 19.09416 72.86870 35 ft 4 kts 76°
2026-05-08 14:17 19.09438 72.86905 36 ft 6 kts 48°
2026-05-08 14:17 19.09472 72.86942 36 ft 7 kts 47°
2026-05-08 14:18 19.09503 72.86978 37 ft 6 kts 47°
2026-05-08 14:18 19.09537 72.87018 37 ft 7 kts 49°
2026-05-08 14:18 19.09569 72.87055 38 ft 5 kts 47°
2026-05-08 14:18 19.09585 72.87087 38 ft 3 kts 93°
2026-05-08 14:19 19.09566 72.87112 38 ft 4 kts 140°
2026-05-08 14:19 19.09547 72.87131 38 ft 2 kts 132°
2026-05-08 14:19 19.09541 72.87138 38 ft 0 kts 132°
2026-05-08 14:19 19.09540 72.87139 38 ft 0 kts 132°